Hlavní strana
METAR-TAF:

METAR-TAF

Letiště :

Cairo Regional Airport

Cairo, Illinois, Spojené státy americké

zeměpisná šířka: 37-03-52N, zeměpisná délka: 089-13-10W, výška: 98 m

Aktuální stav počasí

Zpráva byla vytvořena před 28 minutami, v 10:35 UTC
Bezvětří
Teplota 3°C
Vlhkost vzduchu 100%
Tlak 1012 hPa
Viditelnost: 4.8 km
Zataženo ve výšce 300 ft

METAR: KCIR 241035Z AUTO 00000KT 3SM OVC003 03/03 A2987 RMK AO2 T00300030

Čas: 05:03 (11:03 UTC)


TAF: chybějící

Stav a předpovědi počasí z více než 4 000 letišť (zprávy METAR a TAF).

Červené a žluté tečky na mapě představují dostupné meteorologické stanice.

Když kurzor umístíte na tečku, zobrazí se název stanice.

Pak kliknutím zobrazíte stav a předpověď počasí.

Chcete-li změnit mapu, kliknutím na zelené tlačítko se znaménkem +mapu přiblížíte, kliknutím na zelené tlačítko se znaménkem – mapu oddálíte a kliknutím na zelené šipky přejdete na sousední mapy.


METAR-TAF: